User: anonymous
Location: Space Photons Observatory
(33.2428°N, 111.5467°W)
Time: 11:16:09
(UTC-07:00)
Language:

RESURS DK-1 - Orbit

View from above orbital plane
View from above orbital plane
View from above satellite
View from above satellite

Ground track
Ground track

The orbit data is extracted from the following two-line orbital elements,

1 29228U 06021A   14206.18652022  .00000096  00000-0  15097-4 0   690
2 29228 069.9375 267.6861 0004979 197.4961 260.2872 15.00730714449277
Epoch (UTC): 25 July 2014 04:28:35
Eccentricity: 0.0004979
inclination: 69.9375°
perigee height: 561 km
apogee height: 568 km
right ascension of ascending node: 267.6861°
argument of perigee: 197.4961°
revolutions per day: 15.00730714
mean anomaly at epoch: 260.2872°
orbit number at epoch: 44927

The dashed part of the orbit path shows where the satellite is in the earth's shadow,  

DLR